When you browse on this site, cookies collect data to enhance your experience and personalize the content and advertising you see.
Visit our Privacy Policy to learn more. By continuing to use the site, you agree to this use of cookies and data.
  • In Switzerland
  • List of Countries
  • For 7 days
  • Water Temperature
  • Satellite Maps
  • Weather Map
  • Weather Widgets
  • user-avatar
    Login

    Hourly Weather Santa Fe

    Today, 23 March, Saturday

    Time Temperature Precipitation Wind Pressure Humidity
    00:00 +18°C° 0 mm 2 mps 761 mmHg 58%
    01:00 +18°C° 0 mm 2 mps 761 mmHg 59%
    02:00 +17°C° 0 mm 2 mps 761 mmHg 61%
    03:00 +17°C° 0 mm 2 mps 761 mmHg 62%
    04:00 +16°C° 0 mm 1 mps 761 mmHg 63%
    05:00 +16°C° 0 mm 1 mps 761 mmHg 64%
    06:00 +18°C° 0 mm 2 mps 761 mmHg 60%
    07:00 +19°C° 0 mm 2 mps 761 mmHg 55%
    08:00 +21°C° 0 mm 2 mps 761 mmHg 51%
    09:00 +25°C° 0 mm 2 mps 760 mmHg 46%
    10:00 +27°C° 0 mm 3 mps 760 mmHg 41%
    11:00 +29°C° 0 mm 3 mps 760 mmHg 36%
    12:00 +30°C° 0 mm 3 mps 759 mmHg 33%
    13:00 +33°C° 0 mm 3 mps 759 mmHg 30%
    14:00 +34°C° 0 mm 3 mps 758 mmHg 28%
    15:00 +33°C° 0 mm 3 mps 758 mmHg 28%
    16:00 +33°C° 0 mm 3 mps 757 mmHg 29%
    17:00 +33°C° 0 mm 3 mps 757 mmHg 30%
    18:00 +29°C° 0 mm 2 mps 757 mmHg 37%
    19:00 +27°C° 0 mm 2 mps 757 mmHg 44%
    20:00 +24°C° 0 mm 2 mps 757 mmHg 51%
    21:00 +24°C° 0 mm 2 mps 758 mmHg 53%
    22:00 +23°C° 0 mm 2 mps 758 mmHg 55%
    23:00 +23°C° 0 mm 2 mps 758 mmHg 58%

    Tomorrow, 24 March, Sunday

    Time Temperature Precipitation Wind Pressure Humidity
    00:00 +21°C° 0 mm 2 mps 759 mmHg 59%
    01:00 +22°C° 0 mm 1 mps 759 mmHg 60%
    02:00 +22°C° 0 mm 1 mps 759 mmHg 61%
    03:00 +21°C° 0 mm 1 mps 759 mmHg 62%
    04:00 +21°C° 0 mm 1 mps 759 mmHg 63%
    05:00 +20°C° 0 mm 1 mps 759 mmHg 64%
    06:00 +21°C° 0 mm 2 mps 760 mmHg 62%
    07:00 +23°C° 0 mm 2 mps 760 mmHg 59%
    08:00 +24°C° 0 mm 3 mps 761 mmHg 56%
    09:00 +27°C° 0 mm 3 mps 761 mmHg 49%
    10:00 +29°C° 0 mm 3 mps 761 mmHg 43%
    11:00 +32°C° 0 mm 4 mps 762 mmHg 36%
    12:00 +33°C° 0 mm 4 mps 761 mmHg 31%
    13:00 +33°C° 0 mm 4 mps 761 mmHg 27%
    14:00 +34°C° 0 mm 5 mps 760 mmHg 23%
    15:00 +33°C° 0 mm 5 mps 760 mmHg 21%
    16:00 +33°C° 0 mm 5 mps 760 mmHg 20%
    17:00 +32°C° 0 mm 5 mps 759 mmHg 18%
    18:00 +28°C° 0 mm 4 mps 760 mmHg 22%
    19:00 +26°C° 0 mm 4 mps 760 mmHg 26%
    20:00 +22°C° 0 mm 3 mps 761 mmHg 31%
    21:00 +21°C° 0 mm 3 mps 761 mmHg 36%
    22:00 +20°C° 0 mm 3 mps 761 mmHg 41%
    23:00 +19°C° 0 mm 3 mps 762 mmHg 46%

    Day after tomorrow, 25 March, Monday

    Time Temperature Precipitation Wind Pressure Humidity
    00:00 +19°C° 0 mm 3 mps 762 mmHg 50%
    01:00 +18°C° 0 mm 3 mps 762 mmHg 55%
    02:00 +18°C° 0 mm 3 mps 762 mmHg 59%
    03:00 +17°C° 0 mm 3 mps 762 mmHg 62%
    04:00 +16°C° 0 mm 3 mps 762 mmHg 66%
    05:00 +14°C° 0 mm 3 mps 762 mmHg 70%
    06:00 +16°C° 0 mm 3 mps 763 mmHg 65%
    07:00 +17°C° 0 mm 3 mps 763 mmHg 61%
    08:00 +18°C° 0 mm 3 mps 763 mmHg 57%
    09:00 +20°C° 0 mm 3 mps 764 mmHg 48%
    10:00 +22°C° 0 mm 3 mps 764 mmHg 39%
    11:00 +25°C° 0 mm 2 mps 764 mmHg 30%
    12:00 +26°C° 0 mm 3 mps 763 mmHg 27%
    13:00 +27°C° 0 mm 3 mps 763 mmHg 23%
    14:00 +29°C° 0 mm 4 mps 762 mmHg 20%
    15:00 +27°C° 0 mm 3 mps 762 mmHg 23%
    16:00 +26°C° 0 mm 2 mps 762 mmHg 25%
    17:00 +24°C° 0 mm 2 mps 761 mmHg 28%
    18:00 +24°C° 0 mm 2 mps 762 mmHg 29%
    19:00 +23°C° 0 mm 2 mps 762 mmHg 30%
    20:00 +22°C° 0 mm 3 mps 762 mmHg 31%
    21:00 +21°C° 0 mm 3 mps 763 mmHg 35%
    22:00 +20°C° 0 mm 3 mps 763 mmHg 38%
    23:00 +19°C° 0 mm 3 mps 764 mmHg 42%

    26 March, Tuesday

    Time Temperature Precipitation Wind Pressure Humidity
    00:00 +19°C° 0 mm 3 mps 764 mmHg 48%
    01:00 +18°C° 0 mm 3 mps 764 mmHg 53%
    02:00 +17°C° 0 mm 2 mps 764 mmHg 58%
    03:00 +16°C° 0 mm 2 mps 764 mmHg 65%
    04:00 +15°C° 0 mm 2 mps 764 mmHg 72%
    05:00 +13°C° 0 mm 3 mps 764 mmHg 78%
    06:00 +14°C° 0 mm 3 mps 765 mmHg 76%
    07:00 +16°C° 0 mm 3 mps 766 mmHg 73%
    08:00 +17°C° 0 mm 3 mps 766 mmHg 70%
    09:00 +19°C° 0 mm 3 mps 766 mmHg 60%
    10:00 +21°C° 0 mm 3 mps 766 mmHg 49%
    11:00 +25°C° 0 mm 3 mps 766 mmHg 38%
    12:00 +26°C° 0 mm 3 mps 766 mmHg 34%
    13:00 +27°C° 0 mm 3 mps 765 mmHg 30%
    14:00 +28°C° 0 mm 3 mps 764 mmHg 26%
    15:00 +28°C° 0 mm 4 mps 764 mmHg 27%
    16:00 +27°C° 0 mm 4 mps 764 mmHg 28%
    17:00 +27°C° 0 mm 4 mps 764 mmHg 29%
    18:00 +25°C° 0 mm 4 mps 764 mmHg 36%
    19:00 +22°C° 0 mm 4 mps 765 mmHg 43%
    20:00 +20°C° 0 mm 5 mps 765 mmHg 50%
    21:00 +19°C° 0 mm 4 mps 765 mmHg 55%
    22:00 +18°C° 0 mm 4 mps 766 mmHg 59%
    23:00 +17°C° 0 mm 3 mps 766 mmHg 64%

    27 March, Wednesday

    Time Temperature Precipitation Wind Pressure Humidity
    00:00 +17°C° 0 mm 3 mps 766 mmHg 67%
    01:00 +17°C° 0 mm 3 mps 766 mmHg 70%
    02:00 +16°C° 0 mm 2 mps 766 mmHg 73%
    03:00 +16°C° 0 mm 3 mps 766 mmHg 75%
    04:00 +16°C° 0 mm 3 mps 766 mmHg 77%
    05:00 +16°C° 0 mm 3 mps 766 mmHg 79%
    06:00 +16°C° 0 mm 3 mps 766 mmHg 75%
    07:00 +17°C° 0 mm 3 mps 767 mmHg 72%
    08:00 +18°C° 0 mm 3 mps 767 mmHg 69%
    09:00 +21°C° 0 mm 3 mps 767 mmHg 59%
    10:00 +23°C° 0 mm 4 mps 767 mmHg 50%
    11:00 +27°C° 0 mm 4 mps 767 mmHg 41%
    12:00 +28°C° 0 mm 4 mps 766 mmHg 37%
    13:00 +29°C° 0 mm 3 mps 765 mmHg 34%
    14:00 +30°C° 0 mm 3 mps 765 mmHg 30%
    15:00 +30°C° 0 mm 3 mps 764 mmHg 31%
    16:00 +29°C° 0 mm 3 mps 764 mmHg 32%
    17:00 +29°C° 0 mm 3 mps 764 mmHg 32%
    18:00 +27°C° 0 mm 3 mps 764 mmHg 40%
    19:00 +25°C° 0 mm 3 mps 764 mmHg 47%
    20:00 +23°C° 0 mm 2 mps 765 mmHg 55%
    21:00 +22°C° 0 mm 3 mps 765 mmHg 57%
    22:00 +22°C° 0 mm 3 mps 765 mmHg 60%
    23:00 +22°C° 0 mm 3 mps 765 mmHg 62%

    28 March, Thursday

    Time Temperature Precipitation Wind Pressure Humidity
    00:00 +22°C° 0 mm 3 mps 765 mmHg 64%
    01:00 +22°C° 0 mm 3 mps 765 mmHg 65%
    02:00 +22°C° 0 mm 3 mps 764 mmHg 67%
    03:00 +21°C° 0 mm 3 mps 764 mmHg 67%
    04:00 +21°C° 0 mm 4 mps 764 mmHg 68%
    05:00 +21°C° 0 mm 4 mps 764 mmHg 69%
    06:00 +21°C° 0 mm 3 mps 764 mmHg 67%
    07:00 +21°C° 0 mm 3 mps 765 mmHg 66%
    08:00 +21°C° 0 mm 3 mps 765 mmHg 65%
    09:00 +22°C° 0 mm 3 mps 765 mmHg 62%
    10:00 +22°C° 0 mm 3 mps 765 mmHg 60%
    11:00 +24°C° 0 mm 3 mps 765 mmHg 57%
    12:00 +25°C° 0 mm 2 mps 764 mmHg 52%
    13:00 +26°C° 0 mm 2 mps 763 mmHg 47%
    14:00 +28°C° 0 mm 2 mps 763 mmHg 42%
    15:00 +28°C° 0 mm 2 mps 763 mmHg 42%
    16:00 +28°C° 0 mm 2 mps 762 mmHg 41%
    17:00 +28°C° 0 mm 2 mps 762 mmHg 40%
    18:00 +27°C° 0 mm 2 mps 762 mmHg 44%
    19:00 +26°C° 0 mm 1 mps 763 mmHg 48%
    20:00 +25°C° 0 mm 1 mps 763 mmHg 52%
    21:00 +24°C° 0 mm 1 mps 763 mmHg 54%
    22:00 +24°C° 0 mm 1 mps 763 mmHg 56%
    23:00 +24°C° 0 mm 1 mps 763 mmHg 58%
    Show more